When you browse on this site, cookies collect data to enhance your experience and personalize the content and advertising you see.
Visit our Privacy Policy to learn more. By continuing to use the site, you agree to this use of cookies and data.
  • în România
  • Lista ţărilor
  • Pe 7 zile
  • Temperatura apei
  • Hartă satelitară
  • Meteo pe hartă
  • Widget-uri
  • user-avatar
    Intrare

    Meteo pe oră la Gudalur

    Astăzi, 21 Iulie, Duminică

    Timp Temperatura Precipitaţii Vânt Presiune Umiditate
    00:00 +25°C° 0.2 mm 3 m/s 712 mmHg 87%
    01:00 +25°C° 0.2 mm 3 m/s 711 mmHg 88%
    02:00 +25°C° 0.2 mm 3 m/s 711 mmHg 88%
    03:00 +25°C° 0.2 mm 3 m/s 711 mmHg 88%
    04:00 +25°C° 0.2 mm 3 m/s 711 mmHg 88%
    05:00 +25°C° 0 mm 3 m/s 711 mmHg 87%
    06:00 +25°C° 0.1 mm 3 m/s 711 mmHg 87%
    07:00 +25°C° 0.1 mm 3 m/s 712 mmHg 87%
    08:00 +25°C° 0.1 mm 3 m/s 712 mmHg 86%
    09:00 +25°C° 0.4 mm 3 m/s 712 mmHg 87%
    10:00 +26°C° 0.4 mm 3 m/s 712 mmHg 87%
    11:00 +26°C° 0 mm 2 m/s 712 mmHg 86%
    12:00 +26°C° 0.3 mm 3 m/s 712 mmHg 85%
    13:00 +27°C° 0.3 mm 4 m/s 711 mmHg 83%
    14:00 +27°C° 0.3 mm 4 m/s 711 mmHg 81%
    15:00 +27°C° 0.3 mm 4 m/s 710 mmHg 82%
    16:00 +27°C° 0.3 mm 4 m/s 710 mmHg 83%
    17:00 +26°C° 0.3 mm 3 m/s 710 mmHg 83%
    18:00 +26°C° 0.2 mm 4 m/s 711 mmHg 85%
    19:00 +26°C° 0.2 mm 4 m/s 711 mmHg 86%
    20:00 +25°C° 0.2 mm 4 m/s 711 mmHg 87%
    21:00 +25°C° 0.3 mm 3 m/s 712 mmHg 88%
    22:00 +25°C° 0.3 mm 3 m/s 712 mmHg 88%
    23:00 +25°C° 0.3 mm 3 m/s 712 mmHg 89%

    Mâine, 22 Iulie, Luni

    Timp Temperatura Precipitaţii Vânt Presiune Umiditate
    00:00 +25°C° 1.1 mm 3 m/s 712 mmHg 89%
    01:00 +25°C° 1.1 mm 4 m/s 711 mmHg 90%
    02:00 +25°C° 1.1 mm 4 m/s 711 mmHg 90%
    03:00 +25°C° 0.7 mm 4 m/s 711 mmHg 90%
    04:00 +25°C° 0.7 mm 3 m/s 711 mmHg 90%
    05:00 +25°C° 0.7 mm 3 m/s 710 mmHg 90%
    06:00 +25°C° 0.2 mm 3 m/s 711 mmHg 90%
    07:00 +25°C° 0.2 mm 3 m/s 711 mmHg 89%
    08:00 +25°C° 0.2 mm 3 m/s 711 mmHg 89%
    09:00 +25°C° 0.1 mm 3 m/s 712 mmHg 86%
    10:00 +26°C° 0.1 mm 3 m/s 712 mmHg 83%
    11:00 +26°C° 0.1 mm 3 m/s 712 mmHg 81%
    12:00 +26°C° 0.3 mm 3 m/s 712 mmHg 82%
    13:00 +26°C° 0.3 mm 3 m/s 711 mmHg 83%
    14:00 +26°C° 0.3 mm 3 m/s 711 mmHg 84%
    15:00 +25°C° 0.4 mm 3 m/s 710 mmHg 85%
    16:00 +25°C° 0.4 mm 3 m/s 710 mmHg 86%
    17:00 +25°C° 0.4 mm 3 m/s 710 mmHg 87%
    18:00 +25°C° 0.3 mm 3 m/s 711 mmHg 88%
    19:00 +24°C° 0.3 mm 3 m/s 711 mmHg 89%
    20:00 +24°C° 0.3 mm 3 m/s 712 mmHg 90%
    21:00 +24°C° 0.2 mm 3 m/s 712 mmHg 90%
    22:00 +24°C° 0.2 mm 3 m/s 712 mmHg 89%
    23:00 +24°C° 0.2 mm 3 m/s 712 mmHg 89%

    Poimâine, 23 Iulie, Marţi

    Timp Temperatura Precipitaţii Vânt Presiune Umiditate
    00:00 +24°C° 0.1 mm 3 m/s 711 mmHg 88%
    01:00 +23°C° 0.1 mm 4 m/s 711 mmHg 87%
    02:00 +23°C° 0.1 mm 4 m/s 710 mmHg 86%
    03:00 +23°C° 0.1 mm 4 m/s 710 mmHg 87%
    04:00 +22°C° 0.1 mm 4 m/s 710 mmHg 87%
    05:00 +22°C° 0.1 mm 4 m/s 709 mmHg 87%
    06:00 +23°C° 0 mm 4 m/s 710 mmHg 85%
    07:00 +23°C° 0 mm 4 m/s 711 mmHg 84%
    08:00 +25°C° 0 mm 4 m/s 711 mmHg 83%
    09:00 +25°C° 0.1 mm 4 m/s 711 mmHg 82%
    10:00 +26°C° 0.1 mm 4 m/s 711 mmHg 81%
    11:00 +26°C° 0.1 mm 4 m/s 712 mmHg 80%
    12:00 +26°C° 0.2 mm 4 m/s 711 mmHg 80%
    13:00 +26°C° 0.2 mm 4 m/s 711 mmHg 81%
    14:00 +26°C° 0.2 mm 4 m/s 710 mmHg 81%
    15:00 +26°C° 0.2 mm 4 m/s 710 mmHg 82%
    16:00 +26°C° 0.2 mm 4 m/s 710 mmHg 82%
    17:00 +25°C° 0.2 mm 4 m/s 710 mmHg 83%
    18:00 +25°C° 0.2 mm 3 m/s 710 mmHg 84%
    19:00 +25°C° 0.2 mm 3 m/s 711 mmHg 86%
    20:00 +25°C° 0.2 mm 3 m/s 711 mmHg 87%
    21:00 +25°C° 0.1 mm 3 m/s 712 mmHg 88%
    22:00 +25°C° 0.1 mm 3 m/s 712 mmHg 88%
    23:00 +25°C° 0.1 mm 3 m/s 712 mmHg 88%

    24 Iulie, Miercuri

    Timp Temperatura Precipitaţii Vânt Presiune Umiditate
    00:00 +24°C° 0.1 mm 3 m/s 711 mmHg 88%
    01:00 +24°C° 0.1 mm 3 m/s 711 mmHg 88%
    02:00 +24°C° 0.1 mm 3 m/s 710 mmHg 88%
    03:00 +24°C° 0.1 mm 3 m/s 710 mmHg 88%
    04:00 +24°C° 0.1 mm 3 m/s 710 mmHg 88%
    05:00 +24°C° 0.1 mm 3 m/s 711 mmHg 88%
    06:00 +25°C° 0.1 mm 3 m/s 711 mmHg 86%
    07:00 +25°C° 0.1 mm 3 m/s 712 mmHg 83%
    08:00 +26°C° 0.1 mm 3 m/s 712 mmHg 80%
    09:00 +27°C° 0.2 mm 3 m/s 712 mmHg 77%
    10:00 +28°C° 0.2 mm 3 m/s 712 mmHg 74%
    11:00 +29°C° 0.2 mm 3 m/s 713 mmHg 70%
    12:00 +29°C° 0.3 mm 4 m/s 712 mmHg 70%
    13:00 +29°C° 0.3 mm 4 m/s 712 mmHg 69%
    14:00 +29°C° 0.3 mm 4 m/s 711 mmHg 69%
    15:00 +29°C° 0.3 mm 4 m/s 711 mmHg 72%
    16:00 +28°C° 0.3 mm 4 m/s 711 mmHg 75%
    17:00 +27°C° 0.3 mm 3 m/s 711 mmHg 79%
    18:00 +26°C° 0.1 mm 3 m/s 711 mmHg 81%
    19:00 +26°C° 0.1 mm 3 m/s 712 mmHg 83%
    20:00 +25°C° 0.1 mm 3 m/s 712 mmHg 85%
    21:00 +25°C° 0.1 mm 3 m/s 713 mmHg 85%
    22:00 +25°C° 0.1 mm 3 m/s 713 mmHg 86%
    23:00 +25°C° 0.1 mm 3 m/s 713 mmHg 86%

    25 Iulie, Joi

    Timp Temperatura Precipitaţii Vânt Presiune Umiditate
    00:00 +25°C° 0.1 mm 2 m/s 713 mmHg 87%
    01:00 +25°C° 0.1 mm 2 m/s 712 mmHg 87%
    02:00 +25°C° 0.1 mm 2 m/s 712 mmHg 87%
    03:00 +25°C° 0.1 mm 2 m/s 712 mmHg 87%
    04:00 +25°C° 0.1 mm 2 m/s 712 mmHg 87%
    05:00 +25°C° 0.1 mm 2 m/s 712 mmHg 87%
    06:00 +25°C° 0.1 mm 2 m/s 713 mmHg 86%
    07:00 +25°C° 0.1 mm 2 m/s 713 mmHg 85%
    08:00 +26°C° 0.1 mm 3 m/s 714 mmHg 83%
    09:00 +26°C° 0.2 mm 3 m/s 714 mmHg 81%
    10:00 +27°C° 0.2 mm 3 m/s 714 mmHg 79%
    11:00 +28°C° 0.2 mm 3 m/s 714 mmHg 77%
    12:00 +28°C° 0.6 mm 3 m/s 714 mmHg 76%
    13:00 +28°C° 0.6 mm 3 m/s 713 mmHg 75%
    14:00 +28°C° 0.6 mm 3 m/s 713 mmHg 75%
    15:00 +28°C° 0.4 mm 3 m/s 712 mmHg 76%
    16:00 +27°C° 0.4 mm 3 m/s 712 mmHg 78%
    17:00 +27°C° 0.4 mm 3 m/s 712 mmHg 80%
    18:00 +26°C° 0.1 mm 3 m/s 712 mmHg 82%
    19:00 +26°C° 0.1 mm 3 m/s 713 mmHg 84%
    20:00 +25°C° 0.1 mm 3 m/s 713 mmHg 86%
    21:00 +25°C° 0 mm 3 m/s 713 mmHg 86%
    22:00 +25°C° 0 mm 3 m/s 714 mmHg 86%
    23:00 +25°C° 0 mm 2 m/s 714 mmHg 87%

    26 Iulie, Vineri

    Timp Temperatura Precipitaţii Vânt Presiune Umiditate
    00:00 +25°C° 0 mm 2 m/s 713 mmHg 87%
    01:00 +25°C° 0 mm 2 m/s 713 mmHg 87%
    02:00 +24°C° 0 mm 2 m/s 712 mmHg 87%
    03:00 +24°C° 0 mm 2 m/s 712 mmHg 88%
    04:00 +25°C° 0 mm 2 m/s 713 mmHg 88%
    05:00 +25°C° 0 mm 2 m/s 713 mmHg 88%
    06:00 +25°C° 0.1 mm 2 m/s 713 mmHg 86%
    07:00 +25°C° 0.1 mm 2 m/s 714 mmHg 84%
    08:00 +26°C° 0.1 mm 3 m/s 714 mmHg 83%
    09:00 +27°C° 0.1 mm 3 m/s 714 mmHg 79%
    10:00 +27°C° 0.1 mm 3 m/s 714 mmHg 76%
    11:00 +28°C° 0.1 mm 3 m/s 714 mmHg 72%
    12:00 +29°C° 0.2 mm 3 m/s 714 mmHg 70%
    13:00 +29°C° 0.2 mm 3 m/s 713 mmHg 68%
    14:00 +29°C° 0.2 mm 3 m/s 713 mmHg 66%
    15:00 +28°C° 0.1 mm 3 m/s 713 mmHg 69%
    16:00 +28°C° 0.1 mm 3 m/s 713 mmHg 71%
    17:00 +27°C° 0.1 mm 3 m/s 712 mmHg 74%
    18:00 +26°C° 0 mm 3 m/s 713 mmHg 77%
    19:00 +26°C° 0 mm 3 m/s 713 mmHg 79%
    20:00 +25°C° 0 mm 2 m/s 713 mmHg 82%
    21:00 +25°C° 0 mm 2 m/s 714 mmHg 82%
    22:00 +25°C° 0 mm 2 m/s 714 mmHg 82%
    23:00 +25°C° 0 mm 2 m/s 714 mmHg 82%
    Arată mai mult